| time (UTC) | temp F | wind direction | speed MPH | gust MPH | rain 1hr in | rain 24hr in | rain mn in | humidity % | barometer mb |
| 20260505030706 | 35 | 259 | 0.0 | 2.0 | 0.00 | 0.00 | 0.00 | 80 | 1013.8 |
| 20260505030205 | 35 | 248 | 0.0 | 2.0 | 0.00 | 0.00 | 0.00 | 80 | 1013.8 |
| 20260505025702 | 35 | 269 | 0.0 | 2.0 | 0.00 | 0.00 | 0.00 | 80 | 1013.8 |
| 20260505025200 | 35 | 225 | 0.0 | 2.0 | 0.00 | 0.00 | 0.00 | 81 | 1013.8 |
| 20260505024717 | 35 | 309 | 0.0 | 2.0 | 0.00 | 0.00 | 0.00 | 79 | 1013.6 |
| 20260505024215 | 35 | 258 | 0.0 | 1.0 | 0.00 | 0.00 | 0.00 | 78 | 1013.6 |
| 20260505023733 | 35 | 258 | 0.0 | 4.0 | 0.00 | 0.00 | 0.00 | 79 | 1013.7 |
| 20260505023208 | 35 | 166 | 1.0 | 2.0 | 0.00 | 0.00 | 0.00 | 79 | 1013.6 |
| 20260505022706 | 35 | 262 | 0.0 | 2.0 | 0.00 | 0.00 | 0.00 | 78 | 1013.6 |
| 20260505022205 | 36 | 233 | 0.0 | 2.0 | 0.00 | 0.00 | 0.00 | 78 | 1013.7 |
| 20260505021702 | 36 | 286 | 1.0 | 3.0 | 0.00 | 0.00 | 0.00 | 78 | 1013.7 |
| 20260505021220 | 36 | 248 | 0.0 | 3.0 | 0.00 | 0.00 | 0.00 | 78 | 1013.7 |
| 20260505020657 | 36 | 257 | 0.0 | 2.0 | 0.00 | 0.00 | 0.00 | 78 | 1013.6 |
| 20260505020215 | 36 | 172 | 0.0 | 2.0 | 0.00 | 0.00 | 0.00 | 79 | 1013.7 |
| 20260505015715 | 37 | 160 | 0.0 | 2.0 | 0.00 | 0.00 | 0.00 | 80 | 1013.7 |
| 20260505015157 | 37 | 246 | 0.0 | 2.0 | 0.00 | 0.00 | 0.00 | 79 | 1013.8 |
| 20260505014714 | 37 | 238 | 1.0 | 2.0 | 0.00 | 0.00 | 0.00 | 79 | 1013.5 |
| 20260505014212 | 37 | 58 | 0.0 | 5.0 | 0.00 | 0.00 | 0.00 | 79 | 1013.7 |
| 20260505013710 | 37 | 257 | 1.0 | 5.0 | 0.00 | 0.00 | 0.00 | 78 | 1013.8 |
| 20260505013208 | 37 | 101 | 0.0 | 2.0 | 0.00 | 0.00 | 0.00 | 76 | 1013.9 |
| 20260505012706 | 37 | 45 | 0.0 | 2.0 | 0.00 | 0.00 | 0.00 | 76 | 1013.8 |
| 20260505012224 | 37 | 201 | 0.0 | 1.0 | 0.00 | 0.00 | 0.00 | 75 | 1013.9 |
| 20260505011721 | 37 | 25 | 0.0 | 3.0 | 0.00 | 0.00 | 0.00 | 75 | 1013.9 |
| 20260505011158 | 38 | 266 | 0.0 | 4.0 | 0.00 | 0.00 | 0.00 | 74 | 1014.0 |
| 20260505010715 | 38 | 106 | 0.0 | 4.0 | 0.00 | 0.00 | 0.00 | 73 | 1014.1 |
| 20260505010213 | 38 | 250 | 0.0 | 3.0 | 0.00 | 0.00 | 0.00 | 74 | 1014.1 |
| 20260505005658 | 38 | 39 | 0.0 | 3.0 | 0.00 | 0.00 | 0.00 | 72 | 1014.1 |
| 20260505005216 | 39 | 86 | 0.0 | 1.0 | 0.00 | 0.00 | 0.00 | 71 | 1014.2 |
| 20260505004714 | 39 | 250 | 0.0 | 2.0 | 0.00 | 0.00 | 0.00 | 69 | 1014.1 |
| 20260505004211 | 39 | 291 | 0.0 | 4.0 | 0.00 | 0.00 | 0.00 | 68 | 1014.1 |
| 20260505003709 | 39 | 44 | 1.0 | 4.0 | 0.00 | 0.00 | 0.00 | 69 | 1014.2 |
| 20260505003207 | 39 | 274 | 0.0 | 6.0 | 0.00 | 0.00 | 0.00 | 69 | 1014.2 |
| 20260505002705 | 40 | 7 | 0.0 | 6.0 | 0.00 | 0.00 | 0.00 | 68 | 1014.3 |
| 20260505002207 | 40 | 46 | 0.0 | 3.0 | 0.00 | 0.00 | 0.00 | 68 | 1014.4 |
| 20260505001705 | 40 | 160 | 0.0 | 2.0 | 0.00 | 0.00 | 0.00 | 67 | 1014.2 |
| 20260505001202 | 40 | 287 | 0.0 | 2.0 | 0.00 | 0.00 | 0.00 | 66 | 1014.1 |
| 20260505000720 | 40 | 262 | 0.0 | 3.0 | 0.00 | 0.00 | 0.00 | 66 | 1014.2 |
| 20260505000157 | 40 | 250 | 1.0 | 3.0 | 0.00 | 0.00 | 0.00 | 65 | 1014.1 |
| 20260504235715 | 41 | 43 | 1.0 | 3.0 | 0.00 | 0.00 | 0.00 | 64 | 1014.1 |
| 20260504235213 | 41 | 27 | 0.0 | 2.0 | 0.00 | 0.00 | 0.00 | 65 | 1014.1 |
| 20260504234711 | 41 | 59 | 0.0 | 2.0 | 0.00 | 0.00 | 0.00 | 64 | 1014.0 |
| 20260504234208 | 41 | 50 | 0.0 | 2.0 | 0.00 | 0.00 | 0.00 | 64 | 1014.0 |
| 20260504233705 | 41 | 294 | 0.0 | 4.0 | 0.00 | 0.00 | 0.00 | 64 | 1014.1 |
| 20260504233202 | 41 | 274 | 0.0 | 4.0 | 0.00 | 0.00 | 0.00 | 64 | 1014.1 |
| 20260504232659 | 41 | 35 | 1.0 | 2.0 | 0.00 | 0.00 | 0.00 | 64 | 1014.0 |
| 20260504232157 | 41 | 57 | 1.0 | 3.0 | 0.00 | 0.00 | 0.00 | 65 | 1014.1 |
| 20260504231715 | 41 | 274 | 1.0 | 3.0 | 0.00 | 0.00 | 0.00 | 65 | 1014.1 |
| 20260504231213 | 41 | 272 | 0.0 | 3.0 | 0.00 | 0.00 | 0.00 | 64 | 1014.2 |
| 20260504230711 | 41 | 91 | 0.0 | 3.0 | 0.00 | 0.00 | 0.00 | 64 | 1014.3 |
| 20260504230213 | 41 | 262 | 0.0 | 4.0 | 0.00 | 0.00 | 0.00 | 64 | 1014.3 |
| 20260504225712 | 41 | 60 | 1.0 | 4.0 | 0.00 | 0.00 | 0.00 | 65 | 1014.2 |
| 20260504225210 | 42 | 225 | 1.0 | 4.0 | 0.00 | 0.00 | 0.00 | 64 | 1014.3 |
| 20260504224708 | 42 | 158 | 0.0 | 4.0 | 0.00 | 0.00 | 0.00 | 65 | 1014.3 |
| 20260504224207 | 42 | 254 | 0.0 | 3.0 | 0.00 | 0.00 | 0.00 | 63 | 1014.3 |
| 20260504223659 | 43 | 69 | 1.0 | 3.0 | 0.00 | 0.00 | 0.00 | 62 | 1014.3 |
| 20260504223157 | 43 | 292 | 1.0 | 3.0 | 0.00 | 0.00 | 0.00 | 60 | 1014.3 |
| 20260504222715 | 45 | 285 | 1.0 | 4.0 | 0.00 | 0.00 | 0.00 | 58 | 1014.4 |
| 20260504222213 | 45 | 247 | 1.0 | 4.0 | 0.00 | 0.00 | 0.00 | 57 | 1014.5 |
| 20260504221711 | 45 | 35 | 0.0 | 3.0 | 0.00 | 0.00 | 0.00 | 57 | 1014.4 |
| 20260504221229 | 45 | 270 | 0.0 | 4.0 | 0.00 | 0.00 | 0.00 | 57 | 1014.3 |
| 20260504220705 | 46 | 70 | 2.0 | 4.0 | 0.00 | 0.00 | 0.00 | 57 | 1014.3 |
| 20260504220203 | 46 | 40 | 1.0 | 3.0 | 0.00 | 0.00 | 0.00 | 58 | 1014.3 |
| 20260504215703 | 45 | 48 | 0.0 | 2.0 | 0.00 | 0.00 | 0.00 | 59 | 1014.4 |
| 20260504215201 | 45 | 34 | 0.0 | 2.0 | 0.00 | 0.00 | 0.00 | 60 | 1014.6 |
| 20260504214719 | 44 | 319 | 1.0 | 2.0 | 0.00 | 0.00 | 0.00 | 59 | 1014.8 |
| 20260504214201 | 45 | 249 | 0.0 | 5.0 | 0.00 | 0.00 | 0.00 | 57 | 1014.8 |
| 20260504213659 | 46 | 214 | 2.0 | 5.0 | 0.00 | 0.00 | 0.00 | 55 | 1014.7 |
| 20260504213236 | 46 | 262 | 1.0 | 3.0 | 0.00 | 0.00 | 0.00 | 55 | 1014.8 |
| 20260504212733 | 47 | 248 | 1.0 | 4.0 | 0.00 | 0.00 | 0.00 | 52 | 1014.6 |
| 20260504212209 | 47 | 237 | 2.0 | 4.0 | 0.00 | 0.00 | 0.00 | 51 | 1014.6 |
| 20260504211707 | 47 | 115 | 1.0 | 4.0 | 0.00 | 0.00 | 0.00 | 53 | 1014.6 |
| 20260504211204 | 46 | 253 | 1.0 | 5.0 | 0.00 | 0.00 | 0.00 | 55 | 1014.6 |
| 20260504210702 | 45 | 262 | 1.0 | 8.0 | 0.00 | 0.00 | 0.00 | 56 | 1014.7 |
| 20260504210200 | 45 | 262 | 3.0 | 8.0 | 0.00 | 0.00 | 0.00 | 55 | 1014.8 |
| 20260504205719 | 46 | 251 | 2.0 | 5.0 | 0.00 | 0.00 | 0.00 | 55 | 1014.6 |
| 20260504205214 | 47 | 236 | 2.0 | 7.0 | 0.00 | 0.00 | 0.00 | 53 | 1014.7 |
| 20260504204712 | 47 | 262 | 2.0 | 7.0 | 0.00 | 0.00 | 0.00 | 54 | 1014.7 |
| 20260504204211 | 48 | 271 | 2.0 | 5.0 | 0.00 | 0.00 | 0.00 | 49 | 1014.8 |
| 20260504203728 | 49 | 254 | 1.0 | 3.0 | 0.00 | 0.00 | 0.00 | 50 | 1014.6 |
| 20260504203204 | 49 | 250 | 1.0 | 3.0 | 0.00 | 0.00 | 0.00 | 51 | 1014.6 |
| 20260504202701 | 48 | 44 | 2.0 | 5.0 | 0.00 | 0.00 | 0.00 | 51 | 1014.4 |
| 20260504202218 | 48 | 239 | 1.0 | 5.0 | 0.00 | 0.00 | 0.00 | 51 | 1014.4 |
| 20260504201717 | 49 | 240 | 1.0 | 6.0 | 0.00 | 0.00 | 0.00 | 49 | 1014.5 |
| 20260504201158 | 50 | 250 | 1.0 | 6.0 | 0.00 | 0.00 | 0.00 | 48 | 1014.5 |
| 20260504200716 | 51 | 66 | 1.0 | 4.0 | 0.00 | 0.00 | 0.00 | 45 | 1014.5 |
| 20260504200234 | 51 | 50 | 1.0 | 3.0 | 0.00 | 0.00 | 0.00 | 47 | 1014.4 |
| 20260504195712 | 50 | 311 | 1.0 | 4.0 | 0.00 | 0.00 | 0.00 | 45 | 1014.4 |
| 20260504195210 | 51 | 112 | 1.0 | 6.0 | 0.00 | 0.00 | 0.00 | 44 | 1014.6 |
| 20260504194707 | 51 | 243 | 1.0 | 6.0 | 0.00 | 0.00 | 0.00 | 42 | 1014.5 |
| 20260504194204 | 52 | 242 | 1.0 | 5.0 | 0.00 | 0.00 | 0.00 | 40 | 1014.5 |
| 20260504193701 | 52 | 288 | 2.0 | 5.0 | 0.00 | 0.00 | 0.00 | 37 | 1014.3 |
| 20260504193159 | 54 | 258 | 2.0 | 4.0 | 0.00 | 0.00 | 0.00 | 31 | 1014.3 |
| 20260504192716 | 55 | 271 | 1.0 | 4.0 | 0.00 | 0.00 | 0.00 | 27 | 1014.4 |
| 20260504192214 | 55 | 287 | 1.0 | 4.0 | 0.00 | 0.00 | 0.00 | 27 | 1014.4 |
| 20260504191712 | 56 | 255 | 1.0 | 3.0 | 0.00 | 0.00 | 0.00 | 26 | 1014.2 |
| 20260504191210 | 56 | 360 | 1.0 | 4.0 | 0.00 | 0.00 | 0.00 | 22 | 1014.3 |
| 20260504190701 | 56 | 20 | 1.0 | 4.0 | 0.00 | 0.00 | 0.00 | 22 | 1014.2 |
| 20260504190237 | 55 | 295 | 1.0 | 3.0 | 0.00 | 0.00 | 0.00 | 25 | 1014.2 |
| 20260504185714 | 54 | 306 | 1.0 | 3.0 | 0.00 | 0.00 | 0.00 | 27 | 1014.2 |
| 20260504185211 | 53 | 46 | 1.0 | 3.0 | 0.00 | 0.00 | 0.00 | 31 | 1014.2 |
| 20260504184708 | 53 | 360 | 1.0 | 5.0 | 0.00 | 0.00 | 0.00 | 28 | 1014.3 |
| 20260504184209 | 53 | 43 | 2.0 | 6.0 | 0.00 | 0.00 | 0.00 | 32 | 1014.4 |
| 20260504183707 | 53 | 228 | 2.0 | 6.0 | 0.00 | 0.00 | 0.00 | 31 | 1014.4 |
| 20260504183204 | 53 | 358 | 2.0 | 4.0 | 0.00 | 0.00 | 0.00 | 31 | 1014.4 |
| 20260504182701 | 53 | 43 | 2.0 | 4.0 | 0.00 | 0.00 | 0.00 | 32 | 1014.6 |
| 20260504182159 | 52 | 63 | 1.0 | 4.0 | 0.00 | 0.00 | 0.00 | 30 | 1014.3 |
| 20260504181717 | 53 | 43 | 3.0 | 4.0 | 0.00 | 0.00 | 0.00 | 29 | 1014.3 |
| 20260504181215 | 52 | 79 | 1.0 | 3.0 | 0.00 | 0.00 | 0.00 | 31 | 1014.2 |
| 20260504180713 | 52 | 41 | 2.0 | 5.0 | 0.00 | 0.00 | 0.00 | 30 | 1014.3 |
| 20260504180210 | 52 | 266 | 2.0 | 6.0 | 0.00 | 0.00 | 0.00 | 31 | 1014.3 |
| 20260504175709 | 52 | 43 | 1.0 | 7.0 | 0.00 | 0.00 | 0.00 | 30 | 1014.3 |
| 20260504175207 | 52 | 43 | 3.0 | 7.0 | 0.00 | 0.00 | 0.00 | 30 | 1014.2 |
| 20260504174724 | 52 | 76 | 2.0 | 5.0 | 0.00 | 0.00 | 0.00 | 31 | 1014.0 |
| 20260504174201 | 52 | 53 | 2.0 | 5.0 | 0.00 | 0.00 | 0.00 | 29 | 1014.1 |
| 20260504173659 | 51 | 356 | 1.0 | 5.0 | 0.00 | 0.00 | 0.00 | 31 | 1014.0 |
| 20260504173217 | 50 | 63 | 2.0 | 4.0 | 0.00 | 0.00 | 0.00 | 33 | 1014.0 |
| 20260504172715 | 50 | 47 | 1.0 | 4.0 | 0.00 | 0.00 | 0.00 | 33 | 1014.1 |
| 20260504172212 | 50 | 24 | 1.0 | 4.0 | 0.00 | 0.00 | 0.00 | 32 | 1014.0 |
| 20260504171709 | 50 | 20 | 1.0 | 3.0 | 0.00 | 0.00 | 0.00 | 31 | 1013.9 |
| 20260504171206 | 49 | 235 | 1.0 | 3.0 | 0.00 | 0.00 | 0.00 | 31 | 1014.0 |
| 20260504170702 | 49 | 255 | 1.0 | 3.0 | 0.00 | 0.00 | 0.00 | 28 | 1013.9 |
| 20260504170220 | 49 | 282 | 1.0 | 3.0 | 0.00 | 0.00 | 0.00 | 28 | 1013.9 |
| 20260504160213 | 46 | 45 | 0.0 | 3.0 | 0.00 | 0.00 | 0.00 | 33 | 1013.8 |
| 20260504150706 | 39 | 48 | 0.0 | 1.0 | 0.00 | 0.00 | 0.00 | 56 | 1013.4 |
| 20260504150203 | 38 | 49 | 0.0 | 1.0 | 0.00 | 0.00 | 0.00 | 57 | 1013.3 |
| 20260504141200 | 34 | 143 | 0.0 | 1.0 | 0.00 | 0.00 | 0.00 | 65 | 1012.9 |
| 20260504140719 | 34 | 101 | 0.0 | 1.0 | 0.00 | 0.00 | 0.00 | 63 | 1013.1 |
| 20260504140237 | 34 | 68 | 0.0 | 1.0 | 0.00 | 0.00 | 0.00 | 65 | 1012.9 |
| 20260504130709 | 33 | 126 | 0.0 | 1.0 | 0.00 | 0.00 | 0.00 | 59 | 1012.9 |
| 20260504130207 | 33 | 135 | 0.0 | 1.0 | 0.00 | 0.00 | 0.00 | 59 | 1012.9 |
| 20260504120226 | 35 | 50 | 0.0 | 1.0 | 0.00 | 0.00 | 0.00 | 56 | 1012.8 |
| 20260504110228 | 35 | 243 | 0.0 | 1.0 | 0.00 | 0.00 | 0.00 | 56 | 1012.8 |
| 20260504100203 | 32 | 63 | 0.0 | 0.0 | 0.00 | 0.00 | 0.00 | 90 | 1012.8 |
| 20260504081718 | 34 | 16 | 0.0 | 3.0 | 0.00 | 0.00 | 0.00 | 86 | 1013.7 |
| 20260504081215 | 34 | 19 | 1.0 | 3.0 | 0.00 | 0.00 | 0.00 | 83 | 1013.6 |
| 20260504080714 | 34 | 248 | 0.0 | 2.0 | 0.00 | 0.00 | 0.00 | 84 | 1014.2 |
| 20260504080211 | 34 | 300 | 0.0 | 2.0 | 0.00 | 0.00 | 0.00 | 86 | 1014.1 |
| 20260504070208 | 33 | 211 | 0.0 | 1.0 | 0.00 | 0.00 | 0.00 | 88 | 1013.7 |
| 20260504060204 | 35 | 72 | 0.0 | 1.0 | 0.00 | 0.00 | 0.00 | 90 | 1013.6 |
| 20260504050736 | 35 | 41 | 0.0 | 1.0 | 0.00 | 0.00 | 0.00 | 89 | 1014.3 |
| 20260504050211 | 35 | 41 | 0.0 | 1.0 | 0.00 | 0.00 | 0.00 | 89 | 1014.3 |
| 20260504045712 | 36 | 41 | 0.0 | 1.0 | 0.00 | 0.00 | 0.00 | 88 | 1014.4 |
| 20260504045231 | 36 | 266 | 0.0 | 1.0 | 0.00 | 0.00 | 0.00 | 88 | 1014.3 |
| 20260504044727 | 36 | 42 | 0.0 | 1.0 | 0.00 | 0.00 | 0.00 | 88 | 1014.2 |
| 20260504044205 | 36 | 31 | 0.0 | 3.0 | 0.00 | 0.00 | 0.00 | 88 | 1014.3 |
| 20260504043722 | 36 | 37 | 1.0 | 3.0 | 0.00 | 0.00 | 0.00 | 88 | 1014.0 |
| 20260504043219 | 36 | 45 | 1.0 | 2.0 | 0.00 | 0.00 | 0.00 | 88 | 1013.8 |
| 20260504042717 | 36 | 61 | 0.0 | 2.0 | 0.00 | 0.00 | 0.00 | 87 | 1013.7 |
| 20260504042235 | 36 | 60 | 1.0 | 2.0 | 0.00 | 0.00 | 0.00 | 87 | 1013.8 |
| 20260504041711 | 37 | 347 | 1.0 | 5.0 | 0.00 | 0.00 | 0.00 | 87 | 1013.7 |
| 20260504041209 | 37 | 37 | 1.0 | 5.0 | 0.00 | 0.00 | 0.00 | 87 | 1013.7 |
| 20260504040707 | 37 | 75 | 1.0 | 2.0 | 0.00 | 0.00 | 0.00 | 87 | 1013.7 |
| 20260504040205 | 37 | 33 | 1.0 | 2.0 | 0.00 | 0.00 | 0.00 | 86 | 1013.4 |
| 20260504035743 | 37 | 66 | 1.0 | 3.0 | 0.00 | 0.00 | 0.00 | 86 | 1013.6 |
| 20260504035219 | 38 | 60 | 1.0 | 4.0 | 0.00 | 0.00 | 0.00 | 86 | 1013.4 |
| 20260504034717 | 38 | 56 | 1.0 | 4.0 | 0.00 | 0.00 | 0.00 | 86 | 1013.4 |
| 20260504034236 | 38 | 240 | 1.0 | 5.0 | 0.00 | 0.00 | 0.00 | 85 | 1013.4 |
| 20260504033733 | 39 | 63 | 1.0 | 5.0 | 0.00 | 0.00 | 0.00 | 85 | 1013.5 |
| 20260504033209 | 39 | 238 | 0.0 | 2.0 | 0.00 | 0.00 | 0.00 | 85 | 1013.5 |
| 20260504032707 | 39 | 128 | 0.0 | 2.0 | 0.00 | 0.00 | 0.00 | 85 | 1013.4 |
| 20260504032205 | 39 | 141 | 0.0 | 4.0 | 0.00 | 0.00 | 0.00 | 84 | 1013.6 |
| 20260504031723 | 39 | 224 | 1.0 | 6.0 | 0.00 | 0.00 | 0.00 | 83 | 1013.6 |
| 20260504031221 | 39 | 277 | 1.0 | 6.0 | 0.00 | 0.00 | 0.00 | 84 | 1013.4 |